Terminal Aerodrome Forecast
Issued by NWS

Home | Current Version | Previous Version | Text Only | Print | Product List | Glossary On
Versions: 1 2 3 4 5 6 7 8 9 10 11 12 13
000
FTUS43 KDDC 241720
TAFHYS
TAF
KHYS 241720Z 2418/2518 09012G17KT P6SM BKN150
     FM250600 05008KT P6SM BKN130=

USA.gov is the U.S. government's official web portal to all federal, state and local government web resources and services.